[[{"header":{"parameterUnit":"m.s-1","parameterCategory":1,"la1":30.2992,"la2":30.254,"lo1":-89.0895,"lo2":-89.0443,"dy":0.0025,"dx":0.0025,"nx":19,"ny":19,"refTime":"2026-04-22T03:00:00:Z","depth":0,"parameterNumber":2,"parameterNumberName":"U-component_of_WINDS"},"data":[0,0,0,-3.4288,-3.4289,-3.4342,-3.4342,-3.4424,-3.4425,0,0,0,0,0,0,0,0,0,0,0,-3.4283,-3.4284,-3.4288,-3.429,-3.4342,-3.4342,-3.4424,-3.4425,0,0,0,0,0,0,0,0,0,0,0,-3.4282,-3.4283,-3.4285,-3.429,-3.4342,-3.4342,-3.4424,-3.4379,0,0,0,0,0,0,0,0,0,0,-3.4325,-3.433,-3.4283,-3.4285,-3.429,-3.4342,-3.4342,-3.4376,-3.4381,-3.4407,0,-3.4434,0,-3.4431,-3.4432,-3.4432,0,0,0,-3.4281,-3.4326,-3.4331,-3.4285,-3.4291,-3.4342,-3.4316,-3.4379,-3.4385,-3.4414,-3.4435,-3.4438,-3.4432,-3.4432,-3.4433,-3.4611,-3.4612,0,0,-3.4279,-3.4297,-3.4327,-3.4335,-3.433,-3.4314,-3.4318,-3.4382,-3.4406,-3.4435,-3.4439,-3.4434,-3.4433,-3.4434,-3.461,-3.4611,0,0,0,-3.4276,-3.4296,-3.4299,-3.4333,-3.4341,-3.4316,-3.432,-3.4403,-3.4402,-3.444,-3.4435,-3.4434,-3.4435,-3.4609,-3.4611,-3.4688,0,0,0,-3.4273,-3.4294,-3.4298,-3.431,-3.434,-3.4373,-3.4339,-3.4398,-3.4404,-3.4434,-3.4434,-3.4436,-3.4607,-3.461,-3.4683,-3.4722,0,0,0,-3.4276,-3.4294,-3.4305,-3.4311,-3.4334,-3.4371,-3.4374,-3.4399,-3.4402,-3.4432,-3.4436,-3.4606,-3.4609,-3.4679,-3.4714,-3.4774,0,0,0,-3.4283,-3.4374,-3.4307,-3.4406,-3.4334,-3.442,-3.4374,-3.4436,-3.4472,-3.4434,-3.4607,-3.461,-3.4677,-3.471,-3.4769,-3.4827,-3.4853,0,0,-3.4408,-3.4389,-3.4446,-3.4388,-3.4491,-3.441,-3.4524,-3.4538,-3.4523,-3.4582,-3.4586,-3.4685,-3.4714,-3.4773,-3.4994,-3.5015,0,0,0,-3.4492,-3.4533,-3.4556,-3.4591,-3.4605,-3.4619,-3.4614,-3.462,-3.4669,-3.4558,-3.4722,-3.4739,-3.4773,-3.4799,-3.4817,-3.4844,-3.4624,-3.4623,-3.4623,-3.4694,-3.4671,-3.4763,-3.4747,-3.4782,-3.4776,-3.4802,-3.4807,-3.4773,-3.4813,-3.483,-3.4967,-3.4999,-3.5012,-3.5041,-3.4859,-3.486,-3.486,-3.486,-3.4873,-3.4927,-3.4881,-3.4954,-3.4929,-3.4989,-3.4987,-3.4961,-3.5013,-3.4952,-3.4981,-3.4915,-3.5036,-3.5059,-3.4866,-3.4865,-3.4864,-3.4863,-3.4863,-3.5002,-3.5024,-3.503,-3.5079,-3.5119,-3.5099,-3.5151,-3.5126,-3.5103,-3.5131,-3.5146,-3.5145,-3.5139,-3.514,-3.5141,-3.5141,-3.5142,-3.5142,-3.5142,-3.5134,-3.5138,-3.5185,-3.5208,-3.5227,-3.525,-3.5245,-3.5263,-3.5276,-3.5254,-3.5254,-3.5216,-3.5052,-3.5011,-3.515,-3.5148,-3.5147,-3.5147,-3.5146,-3.5322,-3.5276,-3.5349,-3.5369,-3.5393,-3.5434,-3.5403,-3.5441,-3.5453,-3.5479,-3.5435,-3.5319,-3.5297,-3.5283,-3.5249,-3.544,-3.544,-3.544,-3.544,-3.5431,-3.5418,-3.5487,-3.552,-3.555,-3.5528,-3.5611,-3.5609,-3.5598,-3.5604,-3.5572,-3.5525,-3.5512,-3.5498,-3.5479,-3.5447,-3.5685,-3.5685,-3.5685,-3.5545,-3.5534,-3.561,-3.56,-3.5618,-3.5633,-3.5709,-3.5748,-3.5727,-3.5695,-3.5607,-3.5597,-3.552,-3.5496,-3.5461,-3.5433,-3.5372,0,0]},{"header":{"parameterUnit":"m.s-1","parameterCategory":1,"la1":30.2992,"la2":30.254,"lo1":-89.0895,"lo2":-89.0443,"dy":0.0025,"dx":0.0025,"nx":19,"ny":19,"refTime":"2026-04-22T03:00:00:Z","depth":0,"parameterNumber":3,"parameterNumberName":"V-component_of_WINDS"},"data":[0,0,0,3.1711,3.1711,3.1703,3.1703,3.1715,3.1716,0,0,0,0,0,0,0,0,0,0,0,3.1726,3.1727,3.1711,3.1711,3.1703,3.1703,3.1715,3.1716,0,0,0,0,0,0,0,0,0,0,0,3.1726,3.1727,3.1727,3.1711,3.1703,3.1703,3.1715,3.1713,0,0,0,0,0,0,0,0,0,0,3.1718,3.1744,3.1727,3.1727,3.1711,3.1703,3.1703,3.1713,3.1714,3.1729,0,3.1744,0,3.173,3.1718,3.1718,0,0,0,3.1702,3.1744,3.173,3.1727,3.1711,3.1703,3.1704,3.1713,3.1714,3.173,3.1744,3.1744,3.1731,3.1718,3.1718,3.1834,3.1835,0,0,3.1702,3.1732,3.1729,3.1731,3.1732,3.1704,3.1704,3.1713,3.1732,3.1744,3.1744,3.1731,3.1718,3.1718,3.1833,3.1834,0,0,0,3.171,3.1733,3.1718,3.1731,3.1728,3.1704,3.1704,3.1731,3.1724,3.1744,3.1731,3.1718,3.1719,3.1832,3.1833,3.1909,0,0,0,3.171,3.1737,3.1719,3.1737,3.1728,3.1729,3.1722,3.1723,3.1723,3.1731,3.1718,3.1719,3.1831,3.1832,3.1905,3.194,0,0,0,3.1723,3.1738,3.1742,3.1739,3.1736,3.1728,3.1721,3.1723,3.1716,3.1718,3.1719,3.183,3.1832,3.1901,3.1933,3.1978,0,0,0,3.1745,3.181,3.1743,3.1811,3.1736,3.1776,3.1721,3.1749,3.176,3.1719,3.1831,3.1833,3.19,3.1929,3.1974,3.2021,3.2043,0,0,3.1844,3.1823,3.1861,3.1801,3.1859,3.1774,3.1844,3.1827,3.1801,3.1825,3.1827,3.1906,3.1933,3.1977,3.216,3.2178,0,0,0,3.1902,3.1929,3.1939,3.195,3.1938,3.193,3.1899,3.1892,3.1911,3.1819,3.1934,3.1949,3.1974,3.1995,3.201,3.2029,3.1844,3.1844,3.1844,3.2084,3.2046,3.2106,3.2067,3.208,3.2046,3.2053,3.2039,3.1998,3.2026,3.2032,3.2147,3.2173,3.2184,3.2205,3.2055,3.2055,3.2055,3.2056,3.2224,3.2256,3.22,3.2238,3.2198,3.223,3.2201,3.2171,3.2195,3.214,3.216,3.2101,3.2205,3.2221,3.2061,3.206,3.2059,3.2059,3.2058,3.2338,3.2346,3.2337,3.235,3.2365,3.2324,3.235,3.2313,3.2279,3.2299,3.2301,3.23,3.2293,3.2303,3.2303,3.2304,3.2304,3.2304,3.2305,3.2458,3.2446,3.2471,3.2464,3.2467,3.2466,3.2434,3.2436,3.2429,3.24,3.24,3.2356,3.2223,3.2189,3.2311,3.231,3.2309,3.2308,3.2308,3.2612,3.2572,3.2611,3.2613,3.2602,3.2619,3.2573,3.258,3.2576,3.259,3.2543,3.245,3.2426,3.2414,3.2386,3.2551,3.2551,3.2551,3.2551,3.2707,3.2692,3.2723,3.273,3.2732,3.2694,3.2741,3.2718,3.2687,3.2683,3.2654,3.2614,3.2603,3.2586,3.257,3.2543,3.2745,3.2745,3.2745,3.2799,3.2782,3.2828,3.2797,3.2786,3.2778,3.282,3.283,3.2788,3.2752,3.2679,3.2671,3.2606,3.2587,3.2547,3.2523,3.2473,0,0]}]]